Time,TemperatureF,DewpointF,PressureIn,WindDirection,WindDirectionDegrees,WindSpeedMPH,WindSpeedGustMPH,Humidity,HourlyPrecipIn,Conditions,Clouds,dailyrainin,SoftwareType,DateUTC
2013-09-13 00:09:00,59.2,58.6,29.69,SSW,202,0.0,-999.0,98,-99.99,,,0.00,Acu-Link.com,2013-09-13 04:09:00,
2013-09-13 00:24:00,59.0,58.4,29.70,WNW,292,0.0,-999.0,98,-99.99,,,0.00,Acu-Link.com,2013-09-13 04:24:00,
2013-09-13 00:39:00,59.2,58.6,29.69,ESE,112,0.0,-999.0,98,-99.99,,,0.00,Acu-Link.com,2013-09-13 04:39:00,
2013-09-13 00:55:00,59.5,58.9,29.69,ESE,112,0.0,-999.0,98,-99.99,,,0.00,Acu-Link.com,2013-09-13 04:55:00,
2013-09-13 01:10:00,59.5,58.9,29.69,NNW,337,0.0,-999.0,98,-99.99,,,0.00,Acu-Link.com,2013-09-13 05:10:00,
2013-09-13 01:25:00,59.7,59.1,29.69,NE,45,0.0,-999.0,98,-99.99,,,0.00,Acu-Link.com,2013-09-13 05:25:00,
2013-09-13 01:41:00,59.7,59.1,29.69,North,0,1.7,-999.0,98,-99.99,,,0.00,Acu-Link.com,2013-09-13 05:41:00,
2013-09-13 01:56:00,59.7,59.1,29.70,NNW,337,1.7,-999.0,98,-99.99,,,0.00,Acu-Link.com,2013-09-13 05:56:00,
2013-09-13 02:11:00,59.9,59.3,29.69,NW,315,3.2,-999.0,98,-99.99,,,0.00,Acu-Link.com,2013-09-13 06:11:00,
2013-09-13 02:27:00,60.1,59.5,29.69,NW,315,1.7,-999.0,98,-99.99,,,0.00,Acu-Link.com,2013-09-13 06:27:00,
2013-09-13 02:42:00,60.1,59.5,29.70,WNW,292,1.1,-999.0,98,-99.99,,,0.00,Acu-Link.com,2013-09-13 06:42:00,
2013-09-13 02:57:00,60.1,59.5,29.70,SSE,157,3.2,-999.0,98,-99.99,,,0.00,Acu-Link.com,2013-09-13 06:57:00,
2013-09-13 03:12:00,59.9,59.3,29.70,NW,315,2.2,-999.0,98,-99.99,,,0.00,Acu-Link.com,2013-09-13 07:12:00,
2013-09-13 03:28:00,59.7,59.1,29.70,North,0,2.2,-999.0,98,-99.99,,,0.00,Acu-Link.com,2013-09-13 07:28:00,
2013-09-13 03:43:00,59.4,58.8,29.69,WNW,292,3.2,-999.0,98,-99.99,,,0.00,Acu-Link.com,2013-09-13 07:43:00,
2013-09-13 03:58:00,58.8,58.2,29.70,WNW,292,0.0,-999.0,98,-99.99,,,0.00,Acu-Link.com,2013-09-13 07:58:00,
2013-09-13 04:14:00,58.3,57.7,29.70,ENE,67,3.2,-999.0,98,-99.99,,,0.00,Acu-Link.com,2013-09-13 08:14:00,
2013-09-13 04:30:00,58.1,57.5,29.71,WSW,247,2.2,-999.0,98,-99.99,,,0.00,Acu-Link.com,2013-09-13 08:30:00,
2013-09-13 04:45:00,57.7,57.1,29.71,NNW,337,1.7,-999.0,98,-99.99,,,0.00,Acu-Link.com,2013-09-13 08:45:00,
2013-09-13 05:00:00,57.2,56.6,29.71,NNW,337,0.0,-999.0,98,-99.99,,,0.00,Acu-Link.com,2013-09-13 09:00:00,
2013-09-13 05:15:00,56.7,56.1,29.71,NNW,337,1.7,-999.0,98,-99.99,,,0.00,Acu-Link.com,2013-09-13 09:15:00,
2013-09-13 05:30:00,56.3,55.7,29.72,NE,45,3.2,-999.0,98,-99.99,,,0.00,Acu-Link.com,2013-09-13 09:30:00,
2013-09-13 05:45:00,56.3,55.7,29.72,WNW,292,2.7,-999.0,98,-99.99,,,0.00,Acu-Link.com,2013-09-13 09:45:00,
2013-09-13 06:00:00,56.1,55.5,29.72,NNW,337,1.1,-999.0,98,-99.99,,,0.00,Acu-Link.com,2013-09-13 10:00:00,
2013-09-13 06:16:00,55.8,55.2,29.73,West,270,2.2,-999.0,98,-99.99,,,0.00,Acu-Link.com,2013-09-13 10:16:00,
2013-09-13 06:31:00,55.4,54.8,29.74,South,180,3.2,-999.0,98,-99.99,,,0.00,Acu-Link.com,2013-09-13 10:31:00,
2013-09-13 06:46:00,54.9,54.3,29.74,NNW,337,2.7,-999.0,98,-99.99,,,0.00,Acu-Link.com,2013-09-13 10:46:00,
2013-09-13 07:02:00,55.0,54.4,29.75,North,0,0.0,-999.0,98,-99.99,,,0.00,Acu-Link.com,2013-09-13 11:02:00,
2013-09-13 07:17:00,55.2,54.6,29.76,NW,315,1.1,-999.0,98,-99.99,,,0.00,Acu-Link.com,2013-09-13 11:17:00,
2013-09-13 07:32:00,55.2,54.6,29.76,ESE,112,1.1,-999.0,98,-99.99,,,0.00,Acu-Link.com,2013-09-13 11:32:00,
2013-09-13 07:48:00,55.4,54.8,29.76,NE,45,2.2,-999.0,98,-99.99,,,0.00,Acu-Link.com,2013-09-13 11:48:00,
2013-09-13 08:03:00,55.8,55.2,29.76,NW,315,1.7,-999.0,98,-99.99,,,0.00,Acu-Link.com,2013-09-13 12:03:00,
2013-09-13 08:18:00,55.9,55.3,29.77,North,0,2.7,-999.0,98,-99.99,,,0.00,Acu-Link.com,2013-09-13 12:18:00,
2013-09-13 08:33:00,55.6,55.0,29.78,South,180,2.7,-999.0,98,-99.99,,,0.00,Acu-Link.com,2013-09-13 12:33:00,
2013-09-13 08:49:00,55.4,54.8,29.78,ESE,112,3.7,-999.0,98,-99.99,,,0.00,Acu-Link.com,2013-09-13 12:49:00,
2013-09-13 09:04:00,55.4,54.3,29.78,NW,315,4.2,-999.0,96,-99.99,,,0.00,Acu-Link.com,2013-09-13 13:04:00,
2013-09-13 09:19:00,55.4,53.7,29.78,ESE,112,2.7,-999.0,94,-99.99,,,0.00,Acu-Link.com,2013-09-13 13:19:00,
2013-09-13 09:34:00,55.9,53.6,29.79,NNW,337,2.2,-999.0,92,-99.99,,,0.00,Acu-Link.com,2013-09-13 13:34:00,
2013-09-13 09:50:00,56.1,53.5,29.80,SE,135,3.2,-999.0,91,-99.99,,,0.00,Acu-Link.com,2013-09-13 13:50:00,
2013-09-13 10:05:00,55.0,53.0,29.81,North,0,2.7,-999.0,93,-99.99,,,0.00,Acu-Link.com,2013-09-13 14:05:00,
2013-09-13 10:20:00,54.5,53.9,29.81,NW,315,2.2,-999.0,98,-99.99,,,0.00,Acu-Link.com,2013-09-13 14:20:00,
2013-09-13 10:35:00,54.1,53.5,29.81,East,90,2.7,-999.0,98,-99.99,,,0.00,Acu-Link.com,2013-09-13 14:35:00,
2013-09-13 10:51:00,54.5,53.9,29.81,WNW,292,2.7,-999.0,98,-99.99,,,0.00,Acu-Link.com,2013-09-13 14:51:00,
2013-09-13 11:06:00,55.0,54.4,29.82,ESE,112,2.7,-999.0,98,-99.99,,,0.00,Acu-Link.com,2013-09-13 15:06:00,
2013-09-13 11:21:00,55.4,54.0,29.82,NW,315,3.2,-999.0,95,-99.99,,,0.00,Acu-Link.com,2013-09-13 15:21:00,
2013-09-13 11:37:00,55.2,52.0,29.83,NNE,22,3.2,-999.0,89,-99.99,,,0.00,Acu-Link.com,2013-09-13 15:37:00,
2013-09-13 11:52:00,55.4,51.3,29.83,WSW,247,1.7,-999.0,86,-99.99,,,0.00,Acu-Link.com,2013-09-13 15:52:00,
2013-09-13 12:07:00,56.5,52.0,29.83,East,90,4.2,-999.0,85,-99.99,,,0.00,Acu-Link.com,2013-09-13 16:07:00,
2013-09-13 12:22:00,57.4,51.6,29.83,SE,135,2.7,-999.0,81,-99.99,,,0.00,Acu-Link.com,2013-09-13 16:22:00,
2013-09-13 12:38:00,57.0,51.6,29.84,NW,315,3.7,-999.0,82,-99.99,,,0.00,Acu-Link.com,2013-09-13 16:38:00,
2013-09-13 12:53:00,56.7,51.6,29.83,North,0,2.7,-999.0,83,-99.99,,,0.00,Acu-Link.com,2013-09-13 16:53:00,
2013-09-13 13:08:00,56.8,51.4,29.84,NW,315,3.7,-999.0,82,-99.99,,,0.00,Acu-Link.com,2013-09-13 17:08:00,
2013-09-13 13:24:00,56.7,52.6,29.84,WNW,292,2.7,-999.0,86,-99.99,,,0.00,Acu-Link.com,2013-09-13 17:24:00,
2013-09-13 13:39:00,56.3,52.5,29.84,NW,315,0.0,-999.0,87,-99.99,,,0.00,Acu-Link.com,2013-09-13 17:39:00,
2013-09-13 13:54:00,53.8,53.2,29.84,NW,315,2.7,-999.0,98,-99.99,,,0.01,Acu-Link.com,2013-09-13 17:54:00,
2013-09-13 14:09:00,53.6,53.0,29.84,NNW,337,5.3,-999.0,98,-99.99,,,0.02,Acu-Link.com,2013-09-13 18:09:00,
2013-09-13 14:24:00,54.0,53.4,29.85,NNW,337,1.7,-999.0,98,-99.99,,,0.02,Acu-Link.com,2013-09-13 18:24:00,
2013-09-13 14:39:00,54.1,53.5,29.84,SSE,157,3.7,-999.0,98,-99.99,,,0.02,Acu-Link.com,2013-09-13 18:39:00,
2013-09-13 14:55:00,54.9,54.3,29.84,North,0,2.2,-999.0,98,-99.99,,,0.02,Acu-Link.com,2013-09-13 18:55:00,
2013-09-13 15:10:00,54.5,53.9,29.85,WNW,292,2.2,-999.0,98,-99.99,,,0.02,Acu-Link.com,2013-09-13 19:10:00,
2013-09-13 15:25:00,54.5,53.9,29.85,NW,315,2.2,-999.0,98,-99.99,,,0.02,Acu-Link.com,2013-09-13 19:25:00,
2013-09-13 15:40:00,54.1,53.5,29.85,NW,315,1.7,-999.0,98,-99.99,,,0.02,Acu-Link.com,2013-09-13 19:40:00,
2013-09-13 15:55:00,53.6,53.0,29.85,NNW,337,0.0,-999.0,98,-99.99,,,0.02,Acu-Link.com,2013-09-13 19:55:00,
2013-09-13 16:11:00,54.0,53.4,29.86,WNW,292,0.0,-999.0,98,-99.99,,,0.02,Acu-Link.com,2013-09-13 20:11:00,
2013-09-13 16:26:00,53.6,53.0,29.86,North,0,1.7,-999.0,98,-99.99,,,0.02,Acu-Link.com,2013-09-13 20:26:00,
2013-09-13 16:41:00,53.8,51.8,29.86,WNW,292,0.0,-999.0,93,-99.99,,,0.02,Acu-Link.com,2013-09-13 20:41:00,
2013-09-13 16:57:00,54.1,51.8,29.86,East,90,4.7,-999.0,92,-99.99,,,0.02,Acu-Link.com,2013-09-13 20:57:00,
2013-09-13 17:27:00,53.8,52.1,29.88,NNW,337,0.0,-999.0,94,-99.99,,,0.02,Acu-Link.com,2013-09-13 21:27:00,
2013-09-13 17:43:00,53.6,53.0,29.88,NNW,337,0.0,-999.0,98,-99.99,,,0.02,Acu-Link.com,2013-09-13 21:43:00,
2013-09-13 17:58:00,53.4,52.8,29.88,West,270,0.0,-999.0,98,-99.99,,,0.02,Acu-Link.com,2013-09-13 21:58:00,
2013-09-13 18:13:00,53.2,52.6,29.88,SSW,202,0.0,-999.0,98,-99.99,,,0.02,Acu-Link.com,2013-09-13 22:13:00,
2013-09-13 18:29:00,53.1,52.5,29.88,NNE,22,1.7,-999.0,98,-99.99,,,0.02,Acu-Link.com,2013-09-13 22:29:00,
2013-09-13 18:44:00,52.7,52.2,29.88,SW,225,0.0,-999.0,98,-99.99,,,0.02,Acu-Link.com,2013-09-13 22:44:00,
2013-09-13 18:59:00,52.3,51.8,29.89,WNW,292,0.0,-999.0,98,-99.99,,,0.02,Acu-Link.com,2013-09-13 22:59:00,
2013-09-13 19:15:00,52.2,51.7,29.90,West,270,0.0,-999.0,98,-99.99,,,0.02,Acu-Link.com,2013-09-13 23:15:00,
2013-09-13 19:30:00,52.0,51.5,29.89,NNE,22,1.1,-999.0,98,-99.99,,,0.02,Acu-Link.com,2013-09-13 23:30:00,
2013-09-13 19:45:00,52.0,51.5,29.90,NNE,22,0.0,-999.0,98,-99.99,,,0.02,Acu-Link.com,2013-09-13 23:45:00,
2013-09-13 20:00:00,51.8,51.3,29.91,NNW,337,0.0,-999.0,98,-99.99,,,0.02,Acu-Link.com,2013-09-14 00:00:00,
2013-09-13 20:16:00,51.6,51.1,29.91,WNW,292,0.0,-999.0,98,-99.99,,,0.02,Acu-Link.com,2013-09-14 00:16:00,
2013-09-13 20:31:00,51.6,51.1,29.92,ESE,112,0.0,-999.0,98,-99.99,,,0.02,Acu-Link.com,2013-09-14 00:31:00,
2013-09-13 20:46:00,51.6,51.1,29.93,WNW,292,0.0,-999.0,98,-99.99,,,0.02,Acu-Link.com,2013-09-14 00:46:00,
2013-09-13 21:02:00,51.4,50.9,29.94,WNW,292,0.0,-999.0,98,-99.99,,,0.02,Acu-Link.com,2013-09-14 01:02:00,
2013-09-13 21:17:00,51.3,50.8,29.94,West,270,0.0,-999.0,98,-99.99,,,0.02,Acu-Link.com,2013-09-14 01:17:00,
2013-09-13 21:32:00,51.3,50.8,29.95,SE,135,0.0,-999.0,98,-99.99,,,0.02,Acu-Link.com,2013-09-14 01:32:00,
2013-09-13 21:48:00,51.1,50.6,29.94,NNW,337,1.7,-999.0,98,-99.99,,,0.02,Acu-Link.com,2013-09-14 01:48:00,
2013-09-13 22:03:00,50.9,50.4,29.95,NW,315,0.0,-999.0,98,-99.99,,,0.02,Acu-Link.com,2013-09-14 02:03:00,
2013-09-13 22:18:00,50.9,50.4,29.95,North,0,2.7,-999.0,98,-99.99,,,0.02,Acu-Link.com,2013-09-14 02:18:00,
2013-09-13 22:34:00,50.7,50.2,29.95,North,0,0.0,-999.0,98,-99.99,,,0.02,Acu-Link.com,2013-09-14 02:34:00,
2013-09-13 22:49:00,50.7,50.2,29.95,WNW,292,0.0,-999.0,98,-99.99,,,0.02,Acu-Link.com,2013-09-14 02:49:00,
2013-09-13 23:04:00,50.7,50.2,29.95,NW,315,0.0,-999.0,98,-99.99,,,0.02,Acu-Link.com,2013-09-14 03:04:00,
2013-09-13 23:19:00,50.7,50.2,29.95,NNE,22,2.2,-999.0,98,-99.99,,,0.02,Acu-Link.com,2013-09-14 03:19:00,
2013-09-13 23:35:00,50.7,49.3,29.95,East,90,0.0,-999.0,95,-99.99,,,0.02,Acu-Link.com,2013-09-14 03:35:00,
2013-09-13 23:50:00,50.5,48.3,29.95,North,0,1.7,-999.0,92,-99.99,,,0.02,Acu-Link.com,2013-09-14 03:50:00,